Home > Weather > Flagstaff > Past weeks

Flag for USA Weather for the Past 2 Weeks in Flagstaff, Arizona, USA

Now
44 °F

Clear.


Feels Like: 44 °F
Forecast: 41 / 69 °F
Wind: No wind

Location: Flagstaff Pulliam Airport

Current Time: May 4, 2016 at 10:41:26 PM

Latest Report: May 4, 2016 at 9:57 PM


Visibility: 10 mi

Pressure: 29.96 "Hg (23.17 "Hg at 2103m altitude)

Humidity: 51%

Dew Point: 27 °F

Location of FlagstaffLocation

Historic Weather in Flagstaff — Graph

°F

Flagstaff Temperature Yesterday

Maximum temperature yesterday: 61 °F (at 3:57 PM)
Minimum temperature yesterday: 30 °F (at 12:57 AM)
Average temperature yesterday: 46 °F

High & Low Weather Summary for the Past Weeks

 TemperatureHumidityPressure
High71 °F (May 4, 1:57 PM)100% (Apr 29, 2:57 AM)30.17 "Hg (Apr 29, 2:57 AM)
Low26 °F (Apr 26, 1:57 AM)8% (Apr 21, 3:57 PM)29.51 "Hg (Apr 28, 3:57 AM)
Average45 °F56%29.87 "Hg
* Reported Apr 19 8:57 PM — May 4 8:57 PM, Flagstaff, Weather by CustomWeather, © 2016

Note: Actual official high and low records may vary slightly from our data, if they occured in-between our weather recording intervals... More about our weather records

Advertising

Flagstaff Weather History for the Previous 24 Hours

Scroll right to see more
 ConditionsComfort  
Time TempWeatherWind HumidityBarometerVisibility
8:57 PM
Wed, May 4
48 °FClear.No wind43%29.95 "Hg10 mi
7:57 PM53 °FClear.No wind38%29.93 "Hg10 mi
6:57 PM64 °FSunny.5 mph21%29.93 "Hg10 mi
5:57 PM68 °FSunny.18 mph15%29.96 "Hg10 mi
4:57 PM70 °FSunny.13 mph17%29.95 "Hg10 mi
3:57 PM70 °FSunny.13 mph18%29.94 "Hg10 mi
2:57 PM70 °FSunny.9 mph15%29.98 "Hg10 mi
1:57 PM71 °FSunny.17 mph15%30.00 "Hg10 mi
12:57 PM70 °FSunny.16 mph20%30.03 "Hg10 mi
11:57 AM68 °FSunny.12 mph21%30.03 "Hg10 mi
10:57 AM66 °FSunny.14 mph23%30.07 "Hg10 mi
9:57 AM64 °FSunny.12 mph26%30.06 "Hg10 mi
8:57 AM61 °FSunny.7 mph34%30.07 "Hg10 mi
7:57 AM56 °FSunny.No wind40%30.08 "Hg10 mi
6:57 AM45 °FSunny.No wind65%30.09 "Hg10 mi
5:57 AM33 °FSunny.No wind88%30.10 "Hg10 mi
4:57 AM35 °FClear.No wind82%30.06 "Hg10 mi
3:57 AM40 °FClear.6 mph68%30.03 "Hg10 mi
2:57 AM35 °FClear.3 mph85%30.07 "Hg10 mi
1:57 AM37 °FClear.7 mph76%30.08 "Hg10 mi
12:57 AM36 °FClear.3 mph85%30.09 "Hg10 mi
11:57 PM
Tue, May 3
37 °FClear.No wind79%30.10 "Hg10 mi
10:57 PM38 °FClear.3 mph79%30.10 "Hg10 mi
Weather by CustomWeather, © 2016

See weather overviewHow to use our weather pages